SCP
0 0 0 0 0 0 0 0 0 0 0 0 0 0 0 0 0 0 0 0 0 0 0 0 0 0 0 0 0 0 0 0 0 0 0 0 0 0
0 0 0 0 1 0 0 0 0 0 0 0 0 0 0 0 0 0 0 0 0 0 0 0 0 0 0 0 0 0 0 0 0 0 0 0 0 0
0 0 0 0 0 0 0 0 0 0 0 0 0 0 0 0 0 0 0 0 0 0 0 0 0 0 0 0 0 0 0 0 0 0 0 0 0 0
0 0 0 0 0 0 0 0 0 0 0 0 0 0 0 0 0 0 0 0 0 0 0 0 0 0 0 0 0 0 0 0 0 0 0 0 0 0
0 -0 0 0 0 0 0 0 0 0 0 0 0 0 0 0 0 0 0 0 0 0 0 0 0 0 0 0 0 0 0 0 0 0 0 0 0 0
0 0 0 0 0 0 0 0 0 0 0 0 0 0 0 0 0 0 0 0 0 0 0 0 0 0 0 0 0 0 0 0 0 0 0 0 0 0
0 0 0 0 0 0 0 0 0 0 0 0 0 0 0 0 0 0 0 0 0 0 0 0 0 0 0 0 0 0 0 0 0 0 0 0 0 0
0 0 0 0 0 0 0 0 0 0 0 0 0 0 0 0 0 0 0 0 0 0 0 0 0 0 0 0 0 0 0 0 0 0 0 0 0 -0
0 0 0 0 0 0 0 0 0 0 0 0 0 0 0 0 0 0 0 0 0 0 0 0 0 0 0 0 0 0 0 0 0 0 0 0 -0 -0
0 0 0 0 0 0 0 0 0 0 0 0 0 0 0 0 0 0 0 0 0 0 0 0 0 0 0 0 0 0 0 0 0 0 0 0 -0 0
0 0 0 0 0 0 0 0 0 0 0 0 0 0 0 0 0 0 0 0 0 0 0 0 0 0 0 0 0 0 0 0 0 0 0 0 -0 -0
0 -0 -0 0 0 0 0 0 0 0 0 0 0 0 0 0 0 0 0 0 0 0 0 0 0 0 0 0 0 0 0 0 0 0 0 0 -0 -0
0 0 0 0 0 -0 0 0 0 0 0 0 0 0 0 0 0 0 0 0 0 0 0 0 0 0 0 0 0 0 0 0 0 0 0 0 0 -0
0 0 0 0 0 0 0 0 0 0 0 0 0 0 0 0 0 0 0 0 0 0 0 0 0 0 0 0 0 0 0 0 0 0 0 0 -0 0
0 0 0 0 0 0 0 0 0 0 0 0 0 0 0 0 0 0 0 0 0 0 0 0 0 0 0 0 0 0 0 0 0 0 0 0 -0 -0
0 0 0 0 0 0 0 0 0 0 0 0 0 0 0 0 0 0 0 0 0 0 0 0 0 0 0 0 0 0 0 0 0 0 0 0 -0 0
0 0 0 0 0 0 0 0 0 0 0 0 0 0 0 0 0 0 0 0 0 0 0 0 0 0 0 0 0 0 -0 -0 0 0 0 0 -0 0
0 0 0 0 0 0 0 0 0 0 0 0 0 0 0 0 0 0 0 0 0 0 0 0 0 0 0 0 0 0 0 -0 -0 0 0 0 -0 0
0 0 0 0 0 0 0 0 0 0 0 0 0 0 0 0 0 0 0 0 0 0 0 0 0 0 0 0 0 0 0 -0 -0 -0 0 0 -0 0
0 0 0 0 0 0 0 0 0 0 0 0 0 0 0 0 0 0 0 0 0 0 0 0 0 0 0 0 0 0 0 -0 -0 -0 0 -0 -0 -0
0 0 0 0 0 0 0 0 0 0 0 0 0 0 0 0 0 0 0 0 0 0 0 0 0 0 0 0 0 0 0 0 0 -0 -0 -0 0 0
0 0 0 0 0 0 0 0 0 0 0 0 0 0 0 0 0 0 0 0 0 0 0 0 0 0 0 0 0 0 0 0 -0 -0 -0 -0 -0 0
0 0 0 0 0 0 0 0 0 0 0 0 0 0 0 0 0 0 0 0 0 0 0 0 0 0 0 0 0 0 0 0 0 0 -0 -0 0 0
Wind_Speed_500mb
64 62 56 48 48 48 45 41 38 35 36 39 44 42 41 42 33 30 28 24 19 16 19 22 23 21 21 22 23 27 32 37 41 42 44 46 41 37
41 47 55 46 41 48 46 46 48 48 46 39 43 46 40 40 34 31 30 23 18 16 17 18 20 19 21 24 23 27 31 39 42 45 47 43 37 39
35 37 37 47 48 43 42 48 50 53 58 49 51 46 41 37 35 33 30 22 20 17 13 14 16 17 20 21 25 25 30 39 43 45 46 41 41 45
35 31 37 41 50 43 38 40 46 55 59 52 51 43 44 41 39 35 30 25 20 15 15 12 14 17 22 17 24 27 30 38 43 44 44 40 45 48
36 37 29 38 52 60 45 38 33 44 43 47 50 50 45 42 40 40 33 27 22 18 14 17 15 18 20 18 21 26 32 34 42 45 41 41 48 48
33 30 29 20 35 45 56 50 40 35 41 46 50 52 50 43 41 43 36 30 24 19 14 20 23 21 19 18 17 27 29 33 38 42 40 46 51 46
36 31 24 29 26 24 42 49 44 39 34 41 48 53 56 48 42 45 41 30 27 23 16 17 25 24 20 17 17 23 27 30 35 39 41 49 48 43
46 39 35 29 28 27 26 36 51 50 47 44 44 52 59 57 46 46 41 38 33 23 17 14 23 25 19 16 18 20 24 26 31 36 39 45 41 32
60 50 45 38 40 35 32 29 31 44 54 52 55 50 54 53 46 42 43 35 34 19 14 15 22 22 21 13 15 17 19 22 27 30 35 35 32 31
71 62 55 50 40 40 44 39 30 25 39 55 60 58 46 49 40 41 46 38 33 24 23 18 20 22 17 11 14 14 16 19 23 24 29 26 23 25
77 75 64 57 50 49 46 39 36 31 27 42 44 51 54 40 49 48 41 36 32 28 24 19 18 19 13 12 15 18 14 12 18 18 22 20 17 19
76 76 76 69 61 62 60 54 42 33 27 27 41 44 54 58 45 58 62 40 36 26 19 20 21 15 5 12 16 14 11 9 13 14 17 16 10 17
62 66 65 72 72 72 67 63 54 43 36 32 28 35 54 64 60 67 59 49 36 22 16 19 17 15 10 9 17 14 13 5 8 10 13 12 8 16
53 60 56 54 60 67 64 65 62 57 43 41 33 38 54 66 59 64 72 70 46 28 29 27 20 15 14 14 14 17 14 5 5 6 8 8 6 18
40 47 49 48 53 54 48 48 47 48 51 46 43 36 46 47 60 70 78 81 72 45 25 25 22 18 15 16 14 12 18 13 9 8 8 8 10 18
52 49 55 56 57 53 49 45 47 46 48 51 48 46 30 56 57 83 77 72 71 77 45 30 31 26 21 17 12 9 20 10 16 14 12 11 15 20
56 64 68 67 59 57 51 48 49 47 44 51 47 43 42 35 71 63 73 64 64 60 59 44 40 39 29 23 18 14 23 18 20 21 18 18 24 25
54 64 69 67 65 56 53 37 41 47 42 48 49 44 41 38 34 58 66 59 62 68 69 58 51 54 39 32 25 22 29 25 23 27 23 26 28 31
53 59 59 52 60 56 52 42 37 35 39 45 53 48 43 42 37 42 44 39 52 59 62 63 58 64 51 46 32 30 29 31 27 30 28 28 31 37
54 58 61 54 51 50 53 45 41 36 37 43 44 45 42 47 46 43 46 45 48 64 58 61 65 67 59 52 38 40 38 27 26 27 35 33 30 37
50 53 51 51 51 47 45 46 46 40 38 43 45 47 42 50 48 46 46 49 45 56 59 64 71 66 61 50 38 47 46 36 23 19 32 35 34 33
47 47 50 47 44 42 43 43 43 37 40 36 49 51 45 50 54 50 51 51 46 50 36 46 64 73 71 58 46 49 57 49 39 29 31 39 39 32
47 44 44 40 41 38 38 37 40 38 27 42 49 54 51 49 46 48 44 48 48 46 49 45 56 68 74 64 53 54 59 57 48 40 40 40 44 36
Wind_Direction_500mb
264 260 255 256 254 253 256 258 252 244 248 242 241 242 245 249 258 275 281 288 272 250 263 279 294 306 316 323 321 321 333 338 336 337 334 334 337 345
281 271 256 234 243 251 253 254 253 247 250 250 251 248 248 245 248 265 271 283 275 266 260 267 289 303 312 318 319 326 338 338 336 336 336 339 346 342
294 281 271 245 242 242 246 252 252 244 241 247 246 246 246 242 243 254 259 274 268 279 285 261 272 293 308 324 325 325 339 336 338 336 338 345 346 337
318 305 270 245 235 233 247 260 260 244 235 249 242 239 241 238 240 241 248 260 268 272 296 301 269 275 298 309 320 329 336 340 339 336 344 348 343 335
313 318 313 256 241 243 245 256 264 260 241 246 243 233 235 235 238 235 241 249 252 260 288 299 275 273 289 308 320 332 335 341 341 343 348 345 340 338
304 319 315 310 271 250 245 248 257 262 252 240 242 235 236 230 234 234 238 240 244 264 269 291 283 270 278 289 312 329 334 341 344 353 352 348 344 343
294 292 299 297 287 272 253 239 242 250 255 244 239 238 240 229 231 231 231 235 235 254 272 308 307 288 268 275 291 316 327 338 348 360 356 354 349 355
286 287 284 280 296 300 299 257 242 240 242 252 248 242 242 232 230 228 229 229 234 249 264 310 312 301 284 260 279 311 322 337 356 3 359 360 357 30
278 281 283 286 279 283 290 287 267 247 241 245 250 251 253 245 230 233 231 240 237 243 271 291 309 302 289 261 274 288 311 337 1 5 4 8 15 41
264 270 271 275 281 285 281 283 280 264 243 244 245 245 255 247 231 218 245 241 241 247 249 263 302 312 298 250 265 277 307 335 9 11 11 14 29 52
258 261 265 266 270 274 280 285 279 275 263 246 249 242 236 239 239 219 217 237 238 239 252 250 287 311 305 250 245 263 295 340 17 14 18 19 27 61
265 262 260 262 258 260 267 277 282 280 278 262 248 239 236 234 233 223 225 246 228 231 242 243 277 285 311 261 232 251 284 333 25 22 22 16 29 59
270 270 265 263 258 262 263 264 271 278 266 263 260 251 239 224 226 220 227 223 218 226 264 276 265 282 260 265 227 226 249 295 35 32 33 24 41 76
276 271 274 273 268 264 268 265 268 263 257 261 249 262 244 222 231 230 232 226 210 242 269 256 236 261 260 233 227 221 226 203 82 64 53 51 66 104
276 271 275 275 269 268 266 265 262 257 242 246 248 253 253 242 230 226 214 209 221 238 232 246 213 231 235 227 239 221 210 183 131 124 97 104 107 112
267 273 271 270 264 269 269 261 262 255 242 237 242 239 239 232 230 220 210 218 231 231 231 232 211 212 223 207 224 231 196 178 150 142 127 130 123 117
270 268 268 267 272 267 268 269 265 264 246 233 236 240 236 228 222 225 218 211 207 217 227 224 213 203 210 198 218 209 194 175 154 150 146 139 138 129
273 269 272 272 271 272 270 272 257 259 247 230 230 236 230 228 221 218 225 222 226 230 225 226 217 200 204 201 204 208 192 184 165 154 161 152 150 145
274 272 271 270 267 268 268 261 256 241 244 228 226 232 229 224 227 227 229 232 230 237 224 216 215 200 203 196 194 196 205 188 173 162 170 165 164 161
274 274 271 267 271 266 264 258 251 246 237 228 223 222 230 216 222 228 227 224 235 221 207 206 209 205 213 207 192 193 185 207 181 169 176 175 170 172
285 273 273 274 267 264 260 254 242 249 231 235 217 214 220 215 214 215 226 228 222 223 210 210 209 208 215 214 198 186 184 176 184 170 178 180 175 177
278 273 269 271 263 258 258 250 240 248 234 226 218 211 210 212 208 211 211 216 220 215 210 216 214 208 218 211 204 198 186 179 175 167 171 182 181 183
266 267 260 269 258 251 253 246 234 239 224 218 219 202 205 212 204 207 209 211 212 219 211 213 216 215 214 208 206 197 187 180 176 165 168 180 189 189
Wind_Speed_850mb
64 62 56 48 48 48 45 41 38 35 36 39 44 42 41 42 33 30 28 24 19 16 19 22 23 21 21 22 23 27 32 37 41 42 44 46 41 37
41 47 55 46 41 48 46 46 48 48 46 39 43 46 40 40 34 31 30 23 18 16 17 18 20 19 21 24 23 27 31 39 42 45 47 43 37 39
35 37 37 47 48 43 42 48 50 53 58 49 51 46 41 37 35 33 30 22 20 17 13 14 16 17 20 21 25 25 30 39 43 45 46 41 41 45
35 31 37 41 50 43 38 40 46 55 59 52 51 43 44 41 39 35 30 25 20 15 15 12 14 17 22 17 24 27 30 38 43 44 44 40 45 48
36 37 29 38 52 60 45 38 33 44 43 47 50 50 45 42 40 40 33 27 22 18 14 17 15 18 20 18 21 26 32 34 42 45 41 41 48 48
33 30 29 20 35 45 56 50 40 35 41 46 50 52 50 43 41 43 36 30 24 19 14 20 23 21 19 18 17 27 29 33 38 42 40 46 51 46
36 31 24 29 26 24 42 49 44 39 34 41 48 53 56 48 42 45 41 30 27 23 16 17 25 24 20 17 17 23 27 30 35 39 41 49 48 43
46 39 35 29 28 27 26 36 51 50 47 44 44 52 59 57 46 46 41 38 33 23 17 14 23 25 19 16 18 20 24 26 31 36 39 45 41 32
60 50 45 38 40 35 32 29 31 44 54 52 55 50 54 53 46 42 43 35 34 19 14 15 22 22 21 13 15 17 19 22 27 30 35 35 32 31
71 62 55 50 40 40 44 39 30 25 39 55 60 58 46 49 40 41 46 38 33 24 23 18 20 22 17 11 14 14 16 19 23 24 29 26 23 25
77 75 64 57 50 49 46 39 36 31 27 42 44 51 54 40 49 48 41 36 32 28 24 19 18 19 13 12 15 18 14 12 18 18 22 20 17 19
76 76 76 69 61 62 60 54 42 33 27 27 41 44 54 58 45 58 62 40 36 26 19 20 21 15 5 12 16 14 11 9 13 14 17 16 10 17
62 66 65 72 72 72 67 63 54 43 36 32 28 35 54 64 60 67 59 49 36 22 16 19 17 15 10 9 17 14 13 5 8 10 13 12 8 16
53 60 56 54 60 67 64 65 62 57 43 41 33 38 54 66 59 64 72 70 46 28 29 27 20 15 14 14 14 17 14 5 5 6 8 8 6 18
40 47 49 48 53 54 48 48 47 48 51 46 43 36 46 47 60 70 78 81 72 45 25 25 22 18 15 16 14 12 18 13 9 8 8 8 10 18
52 49 55 56 57 53 49 45 47 46 48 51 48 46 30 56 57 83 77 72 71 77 45 30 31 26 21 17 12 9 20 10 16 14 12 11 15 20
56 64 68 67 59 57 51 48 49 47 44 51 47 43 42 35 71 63 73 64 64 60 59 44 40 39 29 23 18 14 23 18 20 21 18 18 24 25
54 64 69 67 65 56 53 37 41 47 42 48 49 44 41 38 34 58 66 59 62 68 69 58 51 54 39 32 25 22 29 25 23 27 23 26 28 31
53 59 59 52 60 56 52 42 37 35 39 45 53 48 43 42 37 42 44 39 52 59 62 63 58 64 51 46 32 30 29 31 27 30 28 28 31 37
54 58 61 54 51 50 53 45 41 36 37 43 44 45 42 47 46 43 46 45 48 64 58 61 65 67 59 52 38 40 38 27 26 27 35 33 30 37
50 53 51 51 51 47 45 46 46 40 38 43 45 47 42 50 48 46 46 49 45 56 59 64 71 66 61 50 38 47 46 36 23 19 32 35 34 33
47 47 50 47 44 42 43 43 43 37 40 36 49 51 45 50 54 50 51 51 46 50 36 46 64 73 71 58 46 49 57 49 39 29 31 39 39 32
47 44 44 40 41 38 38 37 40 38 27 42 49 54 51 49 46 48 44 48 48 46 49 45 56 68 74 64 53 54 59 57 48 40 40 40 44 36
Wind_Direction_850mb
264 260 255 256 254 253 256 258 252 244 248 242 241 242 245 249 258 275 281 288 272 250 263 279 294 306 316 323 321 321 333 338 336 337 334 334 337 345
281 271 256 234 243 251 253 254 253 247 250 250 251 248 248 245 248 265 271 283 275 266 260 267 289 303 312 318 319 326 338 338 336 336 336 339 346 342
294 281 271 245 242 242 246 252 252 244 241 247 246 246 246 242 243 254 259 274 268 279 285 261 272 293 308 324 325 325 339 336 338 336 338 345 346 337
318 305 270 245 235 233 247 260 260 244 235 249 242 239 241 238 240 241 248 260 268 272 296 301 269 275 298 309 320 329 336 340 339 336 344 348 343 335
313 318 313 256 241 243 245 256 264 260 241 246 243 233 235 235 238 235 241 249 252 260 288 299 275 273 289 308 320 332 335 341 341 343 348 345 340 338
304 319 315 310 271 250 245 248 257 262 252 240 242 235 236 230 234 234 238 240 244 264 269 291 283 270 278 289 312 329 334 341 344 353 352 348 344 343
294 292 299 297 287 272 253 239 242 250 255 244 239 238 240 229 231 231 231 235 235 254 272 308 307 288 268 275 291 316 327 338 348 360 356 354 349 355
286 287 284 280 296 300 299 257 242 240 242 252 248 242 242 232 230 228 229 229 234 249 264 310 312 301 284 260 279 311 322 337 356 3 359 360 357 30
278 281 283 286 279 283 290 287 267 247 241 245 250 251 253 245 230 233 231 240 237 243 271 291 309 302 289 261 274 288 311 337 1 5 4 8 15 41
264 270 271 275 281 285 281 283 280 264 243 244 245 245 255 247 231 218 245 241 241 247 249 263 302 312 298 250 265 277 307 335 9 11 11 14 29 52
258 261 265 266 270 274 280 285 279 275 263 246 249 242 236 239 239 219 217 237 238 239 252 250 287 311 305 250 245 263 295 340 17 14 18 19 27 61
265 262 260 262 258 260 267 277 282 280 278 262 248 239 236 234 233 223 225 246 228 231 242 243 277 285 311 261 232 251 284 333 25 22 22 16 29 59
270 270 265 263 258 262 263 264 271 278 266 263 260 251 239 224 226 220 227 223 218 226 264 276 265 282 260 265 227 226 249 295 35 32 33 24 41 76
276 271 274 273 268 264 268 265 268 263 257 261 249 262 244 222 231 230 232 226 210 242 269 256 236 261 260 233 227 221 226 203 82 64 53 51 66 104
276 271 275 275 269 268 266 265 262 257 242 246 248 253 253 242 230 226 214 209 221 238 232 246 213 231 235 227 239 221 210 183 131 124 97 104 107 112
267 273 271 270 264 269 269 261 262 255 242 237 242 239 239 232 230 220 210 218 231 231 231 232 211 212 223 207 224 231 196 178 150 142 127 130 123 117
270 268 268 267 272 267 268 269 265 264 246 233 236 240 236 228 222 225 218 211 207 217 227 224 213 203 210 198 218 209 194 175 154 150 146 139 138 129
273 269 272 272 271 272 270 272 257 259 247 230 230 236 230 228 221 218 225 222 226 230 225 226 217 200 204 201 204 208 192 184 165 154 161 152 150 145
274 272 271 270 267 268 268 261 256 241 244 228 226 232 229 224 227 227 229 232 230 237 224 216 215 200 203 196 194 196 205 188 173 162 170 165 164 161
274 274 271 267 271 266 264 258 251 246 237 228 223 222 230 216 222 228 227 224 235 221 207 206 209 205 213 207 192 193 185 207 181 169 176 175 170 172
285 273 273 274 267 264 260 254 242 249 231 235 217 214 220 215 214 215 226 228 222 223 210 210 209 208 215 214 198 186 184 176 184 170 178 180 175 177
278 273 269 271 263 258 258 250 240 248 234 226 218 211 210 212 208 211 211 216 220 215 210 216 214 208 218 211 204 198 186 179 175 167 171 182 181 183
266 267 260 269 258 251 253 246 234 239 224 218 219 202 205 212 204 207 209 211 212 219 211 213 216 215 214 208 206 197 187 180 176 165 168 180 189 189